Location: Stilson
(43.0383°N, 93.8852°W)
Time: 18:33:40
(UTC+00:00)

Daily predictions for brighter satellites

Satellite Brightness Start Highest point End
(mag) Time Altitude Azimuth Time Altitude Azimuth Time Altitude Azimuth
STARLINK-1160 4.4 12:01:45 16° WSW 12:02:37 18° SW 12:04:43 10° S
STARLINK-1161 4.4 12:01:58 16° WSW 12:02:51 18° SW 12:04:56 10° S
STARLINK-1145 4.4 12:02:11 16° WSW 12:03:05 18° SW 12:05:10 10° S
STARLINK-1172 4.4 12:02:23 16° WSW 12:03:17 18° SW 12:05:22 10° S
STARLINK-1182 4.5 12:02:50 15° WSW 12:03:44 18° SW 12:05:48 10° S
STARLINK-1140 4.3 12:01:44 16° W 12:03:55 29° SW 12:07:03 10° SSE
STARLINK-1164 4.5 12:03:02 15° WSW 12:03:58 17° SW 12:06:00 10° S
STARLINK-1168 4.5 12:03:16 15° WSW 12:04:12 17° SW 12:06:14 10° S
STARLINK-1183 4.5 12:03:54 15° WSW 12:04:52 17° SW 12:06:53 10° S
FENGYUN 3A 3.8 12:00:57 10° N 12:06:14 54° WNW 12:11:31 10° SSW
STARLINK-1156 4.4 12:04:47 15° W 12:07:05 27° SW 12:10:08 10° SSE
Meteor 1-31 Rocket 4.4 12:06:03 10° NNW 12:08:29 16° WNW 12:10:40 11° WSW
Cosmos 1697 Rocket 4.0 12:04:39 10° NNW 12:10:02 43° ENE 12:15:23 10° SE
STARLINK-1148 4.5 12:07:50 13° W 12:10:15 25° SW 12:13:14 10° S
Cosmos 1346 Rocket 3.2 12:07:03 10° NNW 12:10:42 39° W 12:14:19 10° SSW
Cosmos 2233 Rocket 4.1 12:05:00 10° NNW 12:11:08 55° W 12:17:16 10° SSW
Cosmos 1340 3.5 12:09:16 10° NNW 12:12:30 27° W 12:15:43 10° SSW
Cosmos 2228 Rocket 3.1 12:08:55 10° S 12:13:20 88° ESE 12:17:50 10° N
MOS 1-B 4.4 12:07:42 10° N 12:13:27 62° WNW 12:19:09 10° SSW
SJ-7 4.5 12:12:15 10° NNE 12:16:30 87° WNW 12:20:38 10° SSW
Cosmos 1980 Rocket 4.1 12:14:55 10° N 12:19:46 29° NE 12:24:36 10° ESE
H-2A R/B 3.3 12:16:51 10° NNE 12:20:32 63° E 12:24:11 10° S
SL-24 R/B - RUBIN 2 4.5 12:18:52 10° SSW 12:24:07 74° ESE 12:30:08 10° NE
Meteor 1-26 Rocket 4.3 12:20:05 10° SSW 12:25:51 73° W 12:31:49 10° N
ADEOS Rocket 3.3 12:20:35 10° S 12:27:08 74° WSW 12:34:28 10° NNW
Cosmos 1151 Rocket 4.1 12:25:27 10° SW 12:28:56 23° WNW 12:32:28 10° NNW
USA 267 4.2 12:25:11 10° S 12:30:33 27° SW 12:35:56 10° WNW
COSMOS 2455 2.9 12:26:11 10° NW 12:32:09 65° WSW 12:38:04 10° SSE
Meteor 1-14 Rocket 4.4 12:26:55 10° N 12:32:44 86° W 12:38:38 10° S
